Weather History for Palm Springs, CA

Change the Weather History Date:

Thursday, March 7, 2013

  Actual Average Record
Temperature  
Mean Temperature 59 °F 64 °F  
Max Temperature 68 °F 77 °F 95 °F (1972)
Min Temperature 50 °F 52 °F 35 °F (1931)
Degree Days  
Heating Degree Days 6 3  
Month to date heating degree days 6 21  
Since 1 July heating degree days 744 799  
Cooling Degree Days 0 2  
Month to date cooling degree days 22 12  
Year to date cooling degree days 34 39  
Growing Degree Days 9 (Base 50)    
Moisture  
Dew Point 40 °F    
Average Humidity 54    
Maximum Humidity 68    
Minimum Humidity 40    
Precipitation  
Precipitation 0.00 in 0.04 in 0.50 in (1918)
Month to date precipitation 0.00 0.32  
Year to date precipitation 0.93 2.35  
Since 1 July precipitation 2.15 5.15  
Snow  
Snow 0.00 in - - ()
Month to date snowfall 0.0  
Year to date snowfall 0.0  
Since 1 July snowfall 0.0  
Snow Depth 0.00 in    
Sea Level Pressure  
Sea Level Pressure 29.87 in    
Wind  
Wind Speed 5 mph (WNW)    
Max Wind Speed 22 mph    
Max Gust Speed 26 mph    
Visibility 10 miles    
Events      
T = Trace of Precipitation, MM = Missing Value Source: NWS Daily Summary

Daily Weather History Graph

Daily Weather History Graph

Search for Another Location

Airport:

Trip Planner

Search our weather history database for the weather conditions in past years. The results will help you decide how hot, cold, wet, or windy it might be!

Date:

Astronomy

Mar. 07, 2013 Rise Set
Actual Time 6:06 AM PST 5:47 PM PST
Civil Twilight 5:41 AM PST 6:12 PM PST
Nautical Twilight 5:12 AM PST 6:41 PM PST
Astronomical Twilight 4:43 AM PST 7:10 PM PST
Moon 2:59 AM PST (3/7) 1:49 PM PST (3/7)
Length of Visible Light 12h 31m
Length of Day
11h 41m
Waning Crescent, 19% of the Moon is Illuminated
Mar 7
Waning Crescent
Mar 11
New
Mar 19
First Quarter
Mar 27
Full
Apr 2
Last Quarter

Hourly Weather History & Observations

Time (PST) Temp. Dew Point Humidity Pressure Visibility Wind Dir Wind Speed Gust Speed Precip Events Conditions
12:53 AM 55.9 °F 39.0 °F 53% 29.88 in 10.0 mi South 4.6 mph - N/A   Clear
1:53 AM 55.9 °F 39.9 °F 55% 29.88 in 10.0 mi NNW 3.5 mph - N/A   Clear
2:53 AM 54.0 °F 41.0 °F 62% 29.86 in 10.0 mi South 3.5 mph - N/A   Clear
3:53 AM 52.0 °F 41.0 °F 66% 29.87 in 10.0 mi SSW 5.8 mph - N/A   Clear
4:53 AM 52.0 °F 39.9 °F 63% 29.89 in 10.0 mi Calm Calm - N/A   Clear
5:53 AM 54.0 °F 39.9 °F 59% 29.89 in 10.0 mi Calm Calm - N/A   Clear
6:53 AM 53.1 °F 41.0 °F 64% 29.91 in 10.0 mi Calm Calm - N/A   Clear
7:53 AM 57.9 °F 41.0 °F 53% 29.91 in 10.0 mi Calm Calm - N/A   Scattered Clouds
8:53 AM 63.0 °F 39.9 °F 43% 29.92 in 10.0 mi Calm Calm - N/A   Scattered Clouds
9:53 AM 64.9 °F 39.9 °F 40% 29.91 in 10.0 mi Variable 3.5 mph - N/A   Mostly Cloudy
10:53 AM 64.9 °F 39.9 °F 40% 29.91 in 10.0 mi Variable 5.8 mph - N/A   Mostly Cloudy
11:53 AM 66.0 °F 41.0 °F 40% 29.90 in 10.0 mi NW 9.2 mph - N/A   Mostly Cloudy
12:53 PM 66.0 °F 41.0 °F 40% 29.88 in 10.0 mi NNW 9.2 mph 16.1 mph N/A   Overcast
1:53 PM 66.9 °F 41.0 °F 39% 29.85 in 10.0 mi NW 11.5 mph - N/A   Partly Cloudy
2:53 PM 66.0 °F 43.0 °F 43% 29.85 in 10.0 mi NW 16.1 mph 26.5 mph N/A   Overcast
3:53 PM 64.9 °F 43.0 °F 45% 29.84 in 10.0 mi NNW 15.0 mph 18.4 mph N/A   Overcast
4:53 PM 62.1 °F 41.0 °F 46% 29.85 in 10.0 mi NNW 13.8 mph 26.5 mph N/A   Overcast
5:53 PM 60.1 °F 41.0 °F 49% 29.86 in 10.0 mi NW 16.1 mph - N/A   Overcast
6:53 PM 59.0 °F 39.9 °F 49% 29.86 in 10.0 mi NW 13.8 mph - N/A   Scattered Clouds
7:53 PM 57.9 °F 39.9 °F 51% 29.86 in 10.0 mi SSE 3.5 mph - N/A   Clear
8:53 PM 57.0 °F 39.0 °F 51% 29.86 in 10.0 mi NW 11.5 mph 19.6 mph N/A   Clear
9:53 PM 55.9 °F 37.9 °F 51% 29.86 in 10.0 mi Variable 3.5 mph - N/A   Clear
10:53 PM 55.9 °F 37.9 °F 51% 29.84 in 10.0 mi WSW 4.6 mph - N/A   Clear
11:53 PM 55.0 °F 37.0 °F 51% 29.82 in 10.0 mi SE 5.8 mph - N/A   Clear